CET,Max TemperatureF,Mean TemperatureF,Min TemperatureF,Max Dew PointF,MeanDew PointF,Min DewpointF,Max Humidity, Mean Humidity, Min Humidity, Max Sea Level PressureIn, Mean Sea Level PressureIn, Min Sea Level PressureIn, Max VisibilityMiles, Mean VisibilityMiles, Min VisibilityMiles, Max Wind SpeedMPH, Mean Wind SpeedMPH, Max Gust SpeedMPH,PrecipitationIn, CloudCover, Events, WindDirDegrees
2013-2-1,50,44,37,37,33,27,81,66,49,29.89,29.78,29.53,6,6,6,23,12,34,0.00,6,Rain,228
2013-2-2,44,42,39,45,40,32,100,90,61,29.50,29.35,29.27,6,5,2,20,10,,0.00,7,Rain,220
2013-2-3,39,34,30,37,33,27,100,94,80,29.95,29.71,29.44,6,4,1,22,13,,0.00,7,Rain-Snow,305
2013-2-4,37,32,26,34,29,23,100,88,75,29.95,29.93,29.89,6,6,5,13,8,,0.00,6,Rain-Snow,204
2013-2-5,42,36,30,37,34,30,100,89,66,29.95,29.80,29.62,6,6,6,13,5,,0.00,6,Rain-Snow,159
2013-2-6,39,36,33,37,35,32,100,95,87,29.62,29.50,29.44,6,5,1,9,5,,0.00,7,Rain-Snow,343
2013-2-7,33,32,30,34,32,27,100,96,86,29.74,29.54,29.42,6,4,1,16,10,,0.00,6,Snow,285
2013-2-8,37,30,24,28,25,21,100,82,52,29.83,29.77,29.74,6,6,6,12,8,,0.00,5,,316
2013-2-9,32,24,17,30,25,18,100,94,75,29.92,29.89,29.86,5,3,1,9,4,,0.00,7,Rain-Snow,312
2013-2-10,28,26,23,28,28,23,100,100,93,29.92,29.86,29.83,4,2,1,9,6,,0.00,8,Rain-Snow,303
2013-2-11,28,26,23,27,24,21,100,97,86,29.95,29.92,29.89,3,2,0,15,6,,0.00,7,Fog-Snow,114
2013-2-12,37,30,24,32,26,21,100,81,70,29.89,29.83,29.80,6,5,1,17,13,,0.00,8,Rain-Snow,74
2013-2-13,42,38,35,39,34,30,100,85,70,30.01,29.94,29.86,6,6,5,14,10,,0.00,7,Rain,20
2013-2-14,39,37,35,39,36,34,100,97,87,30.12,30.08,30.04,5,3,1,9,5,,0.00,7,Fog-Rain,10
2013-2-15,44,40,35,41,38,36,100,95,81,30.09,30.06,30.04,6,3,1,7,3,,0.00,7,Fog,299
2013-2-16,44,36,26,37,33,27,100,90,57,30.15,30.13,30.09,6,3,1,12,7,,0.00,3,,298
2013-2-17,37,32,26,36,32,27,100,93,81,30.21,30.17,30.15,6,4,1,8,4,,0.00,7,,54
2013-2-18,39,32,26,34,30,27,100,87,70,30.18,30.13,30.09,6,5,2,8,4,,0.00,6,,115
2013-2-19,39,31,23,36,30,23,100,91,65,30.09,29.96,29.86,6,3,1,13,5,,0.00,6,Rain-Snow,214
2013-2-20,39,34,26,34,28,23,100,83,56,30.06,29.96,29.86,6,6,2,17,10,,0.00,5,,262
2013-2-21,35,27,19,28,22,12,100,77,38,30.06,30.03,29.95,6,6,5,10,5,,0.00,6,,35
2013-2-22,33,30,28,34,30,23,100,96,75,29.95,29.80,29.74,6,2,1,10,8,,0.00,8,Rain-Snow,46
2013-2-23,41,37,33,39,36,34,100,96,93,29.83,29.75,29.68,6,4,1,20,12,,0.00,7,Rain,93
2013-2-24,44,42,41,43,41,37,100,92,81,29.92,29.85,29.77,6,6,4,20,15,,0.00,7,Rain,96
2013-2-25,50,46,42,48,43,39,100,89,76,30.12,30.05,29.92,6,6,6,15,11,,0.00,6,Rain,96
2013-2-26,51,46,42,46,44,41,100,89,71,30.15,30.11,30.09,6,6,2,14,6,,0.00,6,Rain,107
2013-2-27,48,44,39,45,41,39,100,93,76,30.30,30.20,30.15,6,5,2,10,4,,0.00,6,Rain,328
2013-2-28,50,42,32,41,35,27,100,80,46,30.33,30.27,30.18,6,4,1,8,3,,0.00,4,Fog,189